Back to catalog

ONEWEB-0165

AliveCommunicationsPO
NORAD 48233·PAYLOAD·🇬🇧 United Kingdom

Launched Apr 25, 2021 from Vostochny Cosmodrome

Loading…

Next Passes (next 24 hours)

TLE

FreshSource: CelesTrak SupGP

Epoch: Sep 14, 2026, 10:23 UTC

1 48233C 21031Z   26257.43314074  .00003722  00000+0  10051-1 0  2573
2 48233  87.8902 271.9141 0001645  83.7001  18.2561 13.14500305    12

Track ONEWEB-0165 in real time with AllMySat

Download on the App Store